カタログに戻る

DELTA 1 DEB

運用中SSO
NORAD 12528·DEBRIS·🇺🇸 United States

打ち上げ Jul 29, 1976 から Vandenberg Space Force Base

Loading…

次のパス (今後24時間)

TLE

最新Source: Space-Track

元期: Sep 14, 2026, 09:28 UTC

1 12528U 76077DH  26257.39471345 -.00000046  00000-0 -41209-5 0  9996
2 12528 102.5757 243.6293 0077761 135.3251  27.2022 12.27228523182127

AllMySatでDELTA 1 DEBをリアルタイム追跡

Download on the App Store